Weather History for Hattiesburg, MS

Change the Weather History Date:

Sunday, May 19, 2013

  Actual Average Record
Temperature  
Mean Temperature 78 °F 75 °F  
Max Temperature 85 °F 86 °F 95 °F (1951)
Min Temperature 71 °F 63 °F 45 °F (1976)
Degree Days  
Heating Degree Days 0 0  
Month to date heating degree days 33 5  
Since 1 July heating degree days 1864 1983  
Cooling Degree Days 13 10  
Month to date cooling degree days 83 144  
Year to date cooling degree days 206 284  
Growing Degree Days 28 (Base 50)    
Moisture  
Dew Point 70 °F    
Average Humidity 77    
Maximum Humidity 93    
Minimum Humidity 61    
Precipitation  
Precipitation 0.00 in 0.15 in 2.61 in (1958)
Month to date precipitation 5.76 2.99  
Year to date precipitation 36.73 24.55  
Sea Level Pressure  
Sea Level Pressure 30.01 in    
Wind  
Wind Speed 7 mph (South)    
Max Wind Speed 14 mph    
Max Gust Speed 18 mph    
Visibility 10 miles    
Events      
T = Trace of Precipitation, MM = Missing Value Source: NWS Daily Summary

Daily Weather History Graph

Daily Weather History Graph

Search for Another Location

Airport:

Trip Planner

Search our weather history database for the weather conditions in past years. The results will help you decide how hot, cold, wet, or windy it might be!

Date:

Astronomy

May. 19, 2013 Rise Set
Actual Time 5:58 AM CDT 7:48 PM CDT
Civil Twilight 5:31 AM CDT 8:15 PM CDT
Nautical Twilight 4:59 AM CDT 8:48 PM CDT
Astronomical Twilight 4:25 AM CDT 9:22 PM CDT
Moon 2:14 PM CDT (5/19) 1:58 AM CDT (5/19)
Length of Visible Light 14h 43m
Length of Day
13h 50m
Waxing Gibbous, 65% of the Moon is Illuminated
May 19
Waxing Gibbous
May 24
Full
May 31
Last Quarter
Jun 8
New
Jun 16
First Quarter

Hourly Weather History & Observations

Time (CDT) Temp. Heat Index Dew Point Humidity Pressure Visibility Wind Dir Wind Speed Gust Speed Precip Events Conditions
12:53 AM 72.0 °F - 70.0 °F 93% 30.00 in 10.0 mi SSE 4.6 mph - N/A   Clear
1:53 AM 72.0 °F - 70.0 °F 93% 29.99 in 10.0 mi SE 4.6 mph - N/A   Scattered Clouds
2:02 AM 71.6 °F - 69.8 °F 94% 30.00 in 10.0 mi SE 3.5 mph - N/A   Mostly Cloudy
2:53 AM 72.0 °F - 70.0 °F 93% 30.00 in 10.0 mi Calm Calm - N/A   Overcast
3:53 AM 72.0 °F - 70.0 °F 93% 30.01 in 10.0 mi South 4.6 mph - N/A   Overcast
4:53 AM 72.0 °F - 70.0 °F 93% 30.02 in 10.0 mi South 4.6 mph - N/A   Overcast
5:11 AM 71.6 °F - 69.8 °F 94% 30.03 in 10.0 mi South 4.6 mph - N/A   Overcast
5:53 AM 72.0 °F - 70.0 °F 93% 30.03 in 10.0 mi SSE 3.5 mph - N/A   Overcast
6:31 AM 73.4 °F - 69.8 °F 88% 30.03 in 10.0 mi SE 4.6 mph - N/A   Overcast
7:53 AM 73.9 °F - 71.1 °F 91% 30.03 in 10.0 mi South 6.9 mph - N/A   Overcast
8:40 AM 77.0 °F - 71.6 °F 83% 30.04 in 10.0 mi SSE 9.2 mph - N/A   Mostly Cloudy
8:53 AM 77.0 °F - 71.1 °F 82% 30.03 in 10.0 mi South 8.1 mph - N/A   Mostly Cloudy
9:04 AM 78.8 °F - 71.6 °F 78% 30.04 in 10.0 mi South 11.5 mph - N/A   Scattered Clouds
9:53 AM 78.1 °F - 70.0 °F 76% 30.04 in 10.0 mi South 8.1 mph - N/A   Scattered Clouds
10:10 AM 78.8 °F - 69.8 °F 74% 30.05 in 10.0 mi South 8.1 mph - N/A   Mostly Cloudy
10:42 AM 80.6 °F 83.9 °F 69.8 °F 70% 30.05 in 10.0 mi SSW 6.9 mph - N/A   Scattered Clouds
10:53 AM 80.1 °F 83.2 °F 70.0 °F 71% 30.04 in 10.0 mi South 4.6 mph - N/A   Partly Cloudy
11:14 AM 80.6 °F 84.6 °F 71.6 °F 74% 30.04 in 10.0 mi South 9.2 mph - N/A   Mostly Cloudy
11:23 AM 80.6 °F 83.9 °F 69.8 °F 70% 30.04 in 10.0 mi SSW 11.5 mph 16.1 mph N/A   Scattered Clouds
11:53 AM 82.9 °F 87.0 °F 70.0 °F 65% 30.03 in 10.0 mi South 8.1 mph - N/A   Mostly Cloudy
12:53 PM 82.9 °F 85.8 °F 68.0 °F 60% 30.02 in 10.0 mi South 10.4 mph 17.3 mph N/A   Partly Cloudy
3:53 PM 84.9 °F 88.8 °F 69.1 °F 59% 29.98 in 10.0 mi South 9.2 mph - N/A   Clear
4:53 PM 84.0 °F 88.4 °F 70.0 °F 63% 29.97 in 10.0 mi South 6.9 mph - N/A   Mostly Cloudy
5:53 PM 82.9 °F 87.5 °F 71.1 °F 67% 29.96 in 10.0 mi SSE 4.6 mph - N/A   Clear
6:53 PM 82.0 °F 85.9 °F 70.0 °F 67% 29.97 in 10.0 mi SSE 10.4 mph - N/A   Clear
7:53 PM 79.0 °F - 71.1 °F 77% 29.99 in 10.0 mi SSE 6.9 mph - N/A   Scattered Clouds
8:53 PM 77.0 °F - 71.1 °F 82% 30.00 in 10.0 mi SSE 4.6 mph - N/A   Clear
9:53 PM 75.9 °F - 71.1 °F 85% 30.01 in 10.0 mi SSE 8.1 mph - N/A   Clear
10:53 PM 75.0 °F - 72.0 °F 90% 30.01 in 10.0 mi South 8.1 mph - N/A   Mostly Cloudy
11:21 PM 73.4 °F - 71.6 °F 94% 30.01 in 10.0 mi South 9.2 mph - N/A   Scattered Clouds
11:40 PM 73.4 °F - 71.6 °F 94% 30.01 in 10.0 mi SSE 5.8 mph - N/A   Mostly Cloudy
11:53 PM 73.9 °F - 72.0 °F 93% 30.01 in 10.0 mi SSE 6.9 mph - N/A   Overcast